Time,TemperatureF,DewpointF,PressureIn,WindDirection,WindDirectionDegrees,WindSpeedMPH,WindSpeedGustMPH,Humidity,HourlyPrecipIn,Conditions,Clouds,dailyrainin,SoftwareType,DateUTC
2013-02-01 00:03:00,32.0,16.0,29.71,West,273,7.0,22.0,52,0.00,,,0.64,,2013-02-01 05:03:00,
2013-02-01 00:12:00,32.0,16.0,29.71,West,273,7.0,22.0,52,0.00,,,0.64,,2013-02-01 05:12:00,
2013-02-01 00:22:00,31.0,17.0,29.71,West,260,5.0,22.0,55,0.00,,,0.64,,2013-02-01 05:22:00,
2013-02-01 00:32:00,31.0,17.0,29.72,WNW,285,9.0,12.0,56,0.00,,,0.64,,2013-02-01 05:32:00,
2013-02-01 00:42:00,31.0,17.0,29.72,WNW,285,9.0,12.0,56,0.00,,,0.64,,2013-02-01 05:42:00,
2013-02-01 00:52:00,31.0,18.0,29.72,West,266,5.0,12.0,57,0.00,,,0.64,,2013-02-01 05:52:00,
2013-02-01 01:02:00,30.0,18.0,29.73,WNW,282,7.0,12.0,61,0.00,,,0.64,,2013-02-01 06:02:00,
2013-02-01 01:12:00,30.0,18.0,29.73,WNW,282,7.0,12.0,61,0.00,,,0.64,,2013-02-01 06:12:00,
2013-02-01 01:22:00,30.0,17.0,29.74,NW,304,7.0,12.0,59,0.00,,,0.64,,2013-02-01 06:22:00,
2013-02-01 01:32:00,30.0,17.0,29.74,NW,304,7.0,12.0,59,0.00,,,0.64,,2013-02-01 06:32:00,
2013-02-01 01:42:00,30.0,17.0,29.74,NW,304,7.0,12.0,59,0.00,,,0.64,,2013-02-01 06:42:00,
2013-02-01 01:52:00,30.0,17.0,29.74,West,262,11.0,27.0,57,0.00,,,0.64,,2013-02-01 06:52:00,
2013-02-01 02:02:00,29.0,15.0,29.75,WNW,282,10.0,27.0,55,0.00,,,0.64,,2013-02-01 07:02:00,
2013-02-01 02:12:00,29.0,15.0,29.76,West,264,7.0,27.0,55,0.00,,,0.64,,2013-02-01 07:12:00,
2013-02-01 02:22:00,29.0,15.0,29.76,West,264,7.0,27.0,55,0.00,,,0.64,,2013-02-01 07:22:00,
2013-02-01 02:32:00,29.0,14.0,29.76,WSW,241,18.0,18.0,52,0.00,,,0.64,,2013-02-01 07:32:00,
2013-02-01 02:42:00,29.0,14.0,29.76,WSW,241,18.0,18.0,52,0.00,,,0.64,,2013-02-01 07:42:00,
2013-02-01 02:52:00,29.0,14.0,29.76,WSW,255,4.0,16.0,52,0.00,,,0.64,,2013-02-01 07:52:00,
2013-02-01 03:01:00,29.0,13.0,29.77,WSW,252,13.0,16.0,50,0.00,,,0.64,,2013-02-01 08:01:00,
2013-02-01 03:11:00,29.0,13.0,29.77,WSW,252,13.0,16.0,50,0.00,,,0.64,,2013-02-01 08:11:00,
2013-02-01 03:21:00,29.0,13.0,29.78,WSW,246,10.0,16.0,50,0.00,,,0.64,,2013-02-01 08:21:00,
2013-02-01 03:32:00,29.0,11.0,29.78,WSW,251,17.0,17.0,47,0.00,,,0.64,,2013-02-01 08:32:00,
2013-02-01 03:42:00,29.0,11.0,29.78,WSW,251,17.0,17.0,47,0.00,,,0.64,,2013-02-01 08:42:00,
2013-02-01 03:52:00,29.0,11.0,29.78,WSW,251,17.0,17.0,47,0.00,,,0.64,,2013-02-01 08:52:00,
2013-02-01 04:02:00,29.0,13.0,29.80,NW,326,12.0,12.0,51,0.00,,,0.64,,2013-02-01 09:02:00,
2013-02-01 04:11:00,29.0,13.0,29.80,NW,326,12.0,12.0,51,0.00,,,0.64,,2013-02-01 09:11:00,
2013-02-01 04:21:00,28.0,12.0,29.80,West,270,8.0,9.0,51,0.00,,,0.64,,2013-02-01 09:21:00,
2013-02-01 04:32:00,28.0,12.0,29.80,WSW,250,9.0,14.0,51,0.00,,,0.64,,2013-02-01 09:32:00,
2013-02-01 04:42:00,28.0,12.0,29.80,WSW,250,9.0,14.0,51,0.00,,,0.64,,2013-02-01 09:42:00,
2013-02-01 04:51:00,28.0,13.0,29.80,WSW,257,2.0,14.0,52,0.00,,,0.64,,2013-02-01 09:51:00,
2013-02-01 05:01:00,28.0,13.0,29.80,West,276,6.0,14.0,52,0.00,,,0.64,,2013-02-01 10:01:00,
2013-02-01 05:11:00,28.0,13.0,29.80,West,276,6.0,14.0,52,0.00,,,0.64,,2013-02-01 10:11:00,
2013-02-01 05:21:00,28.0,13.0,29.79,WNW,283,5.0,14.0,52,0.00,,,0.64,,2013-02-01 10:21:00,
2013-02-01 05:32:00,28.0,13.0,29.80,NW,308,7.0,11.0,52,0.00,,,0.64,,2013-02-01 10:32:00,
2013-02-01 05:42:00,28.0,13.0,29.80,NW,308,7.0,11.0,52,0.00,,,0.64,,2013-02-01 10:42:00,
2013-02-01 05:52:00,28.0,13.0,29.80,WSW,250,14.0,14.0,53,0.00,,,0.64,,2013-02-01 10:52:00,
2013-02-01 06:02:00,28.0,13.0,29.81,WSW,242,12.0,12.0,53,0.00,,,0.64,,2013-02-01 11:02:00,
2013-02-01 06:11:00,28.0,13.0,29.81,WSW,242,12.0,12.0,53,0.00,,,0.64,,2013-02-01 11:11:00,
2013-02-01 06:22:00,28.0,13.0,29.81,West,281,8.0,11.0,53,0.00,,,0.64,,2013-02-01 11:22:00,
2013-02-01 06:32:00,28.0,13.0,29.81,West,281,8.0,11.0,53,0.00,,,0.64,,2013-02-01 11:32:00,
2013-02-01 06:42:00,28.0,13.0,29.81,West,281,8.0,11.0,53,0.00,,,0.64,,2013-02-01 11:42:00,
2013-02-01 06:53:00,28.0,13.0,29.81,West,281,8.0,11.0,53,0.00,,,0.64,,2013-02-01 11:53:00,
2013-02-01 07:03:00,28.0,15.0,29.82,WNW,287,6.0,10.0,57,0.00,,,0.64,,2013-02-01 12:03:00,
2013-02-01 07:12:00,28.0,15.0,29.82,WNW,287,6.0,10.0,57,0.00,,,0.64,,2013-02-01 12:12:00,
2013-02-01 07:23:00,28.0,14.0,29.83,WSW,256,7.0,10.0,56,0.00,,,0.64,,2013-02-01 12:23:00,
2013-02-01 07:32:00,28.0,15.0,29.85,WSW,258,7.0,7.0,57,0.00,,,0.64,,2013-02-01 12:32:00,
2013-02-01 07:42:00,28.0,15.0,29.85,WSW,258,7.0,7.0,57,0.00,,,0.64,,2013-02-01 12:42:00,
2013-02-01 07:52:00,28.0,15.0,29.85,WNW,286,0.0,5.0,57,0.00,,,0.64,,2013-02-01 12:52:00,
2013-02-01 08:02:00,28.0,14.0,29.86,WNW,285,10.0,10.0,56,0.00,,,0.64,,2013-02-01 13:02:00,
2013-02-01 08:11:00,28.0,14.0,29.86,WNW,285,10.0,10.0,56,0.00,,,0.64,,2013-02-01 13:11:00,
2013-02-01 08:22:00,28.0,14.0,29.87,WNW,285,5.0,5.0,55,0.00,,,0.64,,2013-02-01 13:22:00,
2013-02-01 08:33:00,28.0,13.0,29.88,WNW,299,5.0,19.0,53,0.00,,,0.64,,2013-02-01 13:33:00,
2013-02-01 08:42:00,28.0,13.0,29.88,WNW,299,5.0,19.0,53,0.00,,,0.64,,2013-02-01 13:42:00,
2013-02-01 08:52:00,29.0,14.0,29.88,West,274,4.0,19.0,54,0.00,,,0.64,,2013-02-01 13:52:00,
2013-02-01 09:03:00,29.0,14.0,29.87,West,278,3.0,19.0,52,0.00,,,0.64,,2013-02-01 14:03:00,
2013-02-01 09:11:00,29.0,14.0,29.87,West,278,3.0,19.0,52,0.00,,,0.64,,2013-02-01 14:11:00,
2013-02-01 09:22:00,29.0,14.0,29.87,West,278,3.0,19.0,52,0.00,,,0.64,,2013-02-01 14:22:00,
2013-02-01 09:32:00,29.0,14.0,29.87,West,278,3.0,19.0,52,0.00,,,0.64,,2013-02-01 14:32:00,
2013-02-01 09:42:00,29.0,14.0,29.87,West,278,3.0,19.0,52,0.00,,,0.64,,2013-02-01 14:42:00,
2013-02-01 09:53:00,29.0,14.0,29.86,West,264,4.0,11.0,52,0.00,,,0.64,,2013-02-01 14:53:00,
2013-02-01 10:03:00,29.0,13.0,29.87,NW,308,8.0,11.0,50,0.00,,,0.64,,2013-02-01 15:03:00,
2013-02-01 10:12:00,30.0,14.0,29.87,WSW,254,7.0,11.0,50,0.00,,,0.64,,2013-02-01 15:12:00,
2013-02-01 10:22:00,30.0,14.0,29.87,WSW,254,7.0,11.0,50,0.00,,,0.64,,2013-02-01 15:22:00,
2013-02-01 10:33:00,30.0,13.0,29.87,WNW,299,0.0,9.0,49,0.00,,,0.64,,2013-02-01 15:33:00,
2013-02-01 10:42:00,30.0,13.0,29.87,WNW,299,0.0,9.0,49,0.00,,,0.64,,2013-02-01 15:42:00,
2013-02-01 10:52:00,30.0,12.0,29.87,NW,304,4.0,9.0,47,0.00,,,0.64,,2013-02-01 15:52:00,
2013-02-01 11:03:00,31.0,13.0,29.87,WNW,289,2.0,9.0,46,0.00,,,0.64,,2013-02-01 16:03:00,
2013-02-01 11:12:00,31.0,12.0,29.87,WNW,301,0.0,9.0,45,0.00,,,0.64,,2013-02-01 16:12:00,
2013-02-01 11:22:00,31.0,12.0,29.87,WNW,301,0.0,9.0,45,0.00,,,0.64,,2013-02-01 16:22:00,
2013-02-01 11:33:00,31.0,12.0,29.87,WNW,289,8.0,8.0,44,0.00,,,0.64,,2013-02-01 16:33:00,
2013-02-01 11:43:00,31.0,12.0,29.87,WNW,289,8.0,8.0,44,0.00,,,0.64,,2013-02-01 16:43:00,
2013-02-01 11:52:00,31.0,12.0,29.87,WNW,289,8.0,8.0,44,0.00,,,0.64,,2013-02-01 16:52:00,
2013-02-01 12:03:00,31.0,12.0,29.83,WNW,294,1.0,5.0,45,0.00,,,0.64,,2013-02-01 17:03:00,
2013-02-01 12:12:00,32.0,13.0,29.83,NW,308,0.0,5.0,45,0.00,,,0.64,,2013-02-01 17:12:00,
2013-02-01 12:22:00,32.0,13.0,29.83,NW,308,0.0,5.0,45,0.00,,,0.64,,2013-02-01 17:22:00,
2013-02-01 12:32:00,31.0,12.0,29.83,NW,311,9.0,12.0,44,0.00,,,0.64,,2013-02-01 17:32:00,
2013-02-01 12:42:00,31.0,12.0,29.83,NW,311,9.0,12.0,44,0.00,,,0.64,,2013-02-01 17:42:00,
2013-02-01 12:53:00,31.0,13.0,29.84,NW,312,7.0,12.0,46,0.00,,,0.64,,2013-02-01 17:53:00,
2013-02-01 13:03:00,31.0,13.0,29.84,NW,312,7.0,12.0,46,0.00,,,0.64,,2013-02-01 18:03:00,
2013-02-01 13:12:00,31.0,13.0,29.84,NW,312,7.0,12.0,46,0.00,,,0.64,,2013-02-01 18:12:00,
2013-02-01 13:22:00,31.0,12.0,29.83,NW,305,0.0,12.0,44,0.00,,,0.64,,2013-02-01 18:22:00,
2013-02-01 13:32:00,31.0,12.0,29.83,West,281,3.0,11.0,45,0.00,,,0.64,,2013-02-01 18:32:00,
2013-02-01 13:42:00,31.0,12.0,29.83,West,281,3.0,11.0,45,0.00,,,0.64,,2013-02-01 18:42:00,
2013-02-01 13:52:00,31.0,12.0,29.83,NW,322,9.0,11.0,45,0.00,,,0.64,,2013-02-01 18:52:00,
2013-02-01 14:03:00,31.0,11.0,29.84,WNW,288,4.0,11.0,43,0.00,,,0.64,,2013-02-01 19:03:00,
2013-02-01 14:12:00,31.0,11.0,29.84,WNW,288,4.0,11.0,43,0.00,,,0.64,,2013-02-01 19:12:00,
2013-02-01 14:21:00,31.0,12.0,29.85,NW,318,0.0,11.0,44,0.00,,,0.64,,2013-02-01 19:21:00,
2013-02-01 14:32:00,31.0,12.0,29.85,NW,318,0.0,11.0,44,0.00,,,0.64,,2013-02-01 19:32:00,
2013-02-01 14:42:00,31.0,12.0,29.85,NW,318,0.0,11.0,44,0.00,,,0.64,,2013-02-01 19:42:00,
2013-02-01 14:52:00,31.0,10.0,29.85,WNW,292,6.0,10.0,40,0.00,,,0.64,,2013-02-01 19:52:00,
2013-02-01 15:02:00,31.0,9.0,29.86,NW,316,12.0,12.0,39,0.00,,,0.64,,2013-02-01 20:02:00,
2013-02-01 15:11:00,31.0,9.0,29.87,NW,324,8.0,10.0,39,0.00,,,0.64,,2013-02-01 20:11:00,
2013-02-01 15:21:00,31.0,9.0,29.87,NW,324,8.0,10.0,39,0.00,,,0.64,,2013-02-01 20:21:00,
2013-02-01 15:32:00,31.0,9.0,29.87,NW,324,8.0,10.0,39,0.00,,,0.64,,2013-02-01 20:32:00,
2013-02-01 15:42:00,31.0,10.0,29.89,NNW,329,11.0,11.0,40,0.00,,,0.64,,2013-02-01 20:42:00,
2013-02-01 15:52:00,31.0,10.0,29.89,NNW,329,11.0,11.0,40,0.00,,,0.64,,2013-02-01 20:52:00,
2013-02-01 16:02:00,31.0,10.0,29.90,WNW,292,0.0,9.0,41,0.00,,,0.64,,2013-02-01 21:02:00,
2013-02-01 16:12:00,31.0,10.0,29.90,WNW,292,0.0,9.0,41,0.00,,,0.64,,2013-02-01 21:12:00,
2013-02-01 16:22:00,31.0,8.0,29.91,WNW,285,6.0,9.0,37,0.00,,,0.64,,2013-02-01 21:22:00,
2013-02-01 16:32:00,31.0,8.0,29.91,WNW,285,6.0,9.0,37,0.00,,,0.64,,2013-02-01 21:32:00,
2013-02-01 16:42:00,31.0,8.0,29.91,WNW,285,6.0,9.0,37,0.00,,,0.64,,2013-02-01 21:42:00,
2013-02-01 16:52:00,30.0,11.0,29.93,NW,318,6.0,6.0,44,0.00,,,0.64,,2013-02-01 21:52:00,
2013-02-01 17:03:00,29.0,12.0,29.94,NW,307,1.0,5.0,48,0.00,,,0.64,,2013-02-01 22:03:00,
2013-02-01 17:11:00,29.0,10.0,29.96,NW,310,11.0,11.0,45,0.00,,,0.64,,2013-02-01 22:11:00,
2013-02-01 17:21:00,29.0,10.0,29.96,NW,310,11.0,11.0,45,0.00,,,0.64,,2013-02-01 22:21:00,
2013-02-01 17:32:00,29.0,10.0,29.96,NW,310,11.0,11.0,45,0.00,,,0.64,,2013-02-01 22:32:00,
2013-02-01 17:42:00,29.0,10.0,29.96,NW,310,11.0,11.0,45,0.00,,,0.64,,2013-02-01 22:42:00,
2013-02-01 17:52:00,28.0,10.0,29.98,NW,306,13.0,13.0,47,0.00,,,0.64,,2013-02-01 22:52:00,
2013-02-01 18:01:00,27.0,9.0,29.99,West,281,6.0,11.0,46,0.00,,,0.64,,2013-02-01 23:01:00,
2013-02-01 18:11:00,27.0,9.0,29.99,West,281,6.0,11.0,46,0.00,,,0.64,,2013-02-01 23:11:00,
2013-02-01 18:21:00,27.0,9.0,30.01,NW,305,0.0,11.0,45,0.00,,,0.64,,2013-02-01 23:21:00,
2013-02-01 18:32:00,27.0,9.0,30.02,NW,316,2.0,4.0,46,0.00,,,0.64,,2013-02-01 23:32:00,
2013-02-01 18:42:00,27.0,9.0,30.02,NW,316,2.0,4.0,46,0.00,,,0.64,,2013-02-01 23:42:00,
2013-02-01 18:52:00,27.0,8.0,30.04,WNW,303,0.0,4.0,44,0.00,,,0.64,,2013-02-01 23:52:00,
2013-02-01 19:02:00,27.0,8.0,30.05,NW,304,5.0,5.0,43,0.00,,,0.64,,2013-02-02 00:02:00,
2013-02-01 19:11:00,27.0,8.0,30.05,NW,304,5.0,5.0,43,0.00,,,0.64,,2013-02-02 00:11:00,
2013-02-01 19:21:00,26.0,8.0,30.06,WNW,301,5.0,5.0,45,0.00,,,0.64,,2013-02-02 00:21:00,
2013-02-01 19:32:00,26.0,7.0,30.07,NW,318,7.0,15.0,43,0.00,,,0.64,,2013-02-02 00:32:00,
2013-02-01 19:42:00,26.0,7.0,30.07,NW,318,7.0,15.0,43,0.00,,,0.64,,2013-02-02 00:42:00,
2013-02-01 19:52:00,26.0,7.0,30.08,NW,312,7.0,15.0,44,0.00,,,0.64,,2013-02-02 00:52:00,
2013-02-01 20:02:00,25.0,6.0,30.09,WNW,297,6.0,15.0,43,0.00,,,0.64,,2013-02-02 01:02:00,
2013-02-01 20:11:00,25.0,6.0,30.09,WNW,297,6.0,15.0,43,0.00,,,0.64,,2013-02-02 01:11:00,
2013-02-01 20:21:00,25.0,6.0,30.10,WNW,291,15.0,15.0,44,0.00,,,0.64,,2013-02-02 01:21:00,
2013-02-01 20:32:00,25.0,6.0,30.10,West,275,10.0,15.0,43,0.00,,,0.64,,2013-02-02 01:32:00,
2013-02-01 20:42:00,25.0,6.0,30.10,West,275,10.0,15.0,43,0.00,,,0.64,,2013-02-02 01:42:00,
2013-02-01 20:52:00,25.0,5.0,30.12,NW,306,3.0,12.0,41,0.00,,,0.64,,2013-02-02 01:52:00,
2013-02-01 21:01:00,24.0,4.0,30.12,WNW,289,4.0,12.0,41,0.00,,,0.64,,2013-02-02 02:01:00,
2013-02-01 21:11:00,24.0,4.0,30.12,WNW,289,4.0,12.0,41,0.00,,,0.64,,2013-02-02 02:11:00,
2013-02-01 21:22:00,24.0,5.0,30.14,WNW,285,3.0,12.0,43,0.00,,,0.64,,2013-02-02 02:22:00,
2013-02-01 21:32:00,24.0,5.0,30.14,NNW,328,2.0,9.0,43,0.00,,,0.64,,2013-02-02 02:32:00,
2013-02-01 21:42:00,24.0,5.0,30.14,NNW,328,2.0,9.0,43,0.00,,,0.64,,2013-02-02 02:42:00,
2013-02-01 21:52:00,24.0,5.0,30.14,NW,310,7.0,9.0,44,0.00,,,0.64,,2013-02-02 02:52:00,
2013-02-01 22:02:00,23.0,5.0,30.15,NNW,336,0.0,9.0,46,0.00,,,0.64,,2013-02-02 03:02:00,
2013-02-01 22:11:00,23.0,6.0,30.16,NW,317,6.0,9.0,47,0.00,,,0.64,,2013-02-02 03:11:00,
2013-02-01 22:22:00,23.0,6.0,30.16,NW,317,6.0,9.0,47,0.00,,,0.64,,2013-02-02 03:22:00,
2013-02-01 22:32:00,23.0,6.0,30.16,WNW,295,2.0,10.0,48,0.00,,,0.64,,2013-02-02 03:32:00,
2013-02-01 22:42:00,23.0,7.0,30.16,WNW,297,0.0,10.0,49,0.00,,,0.64,,2013-02-02 03:42:00,
2013-02-01 22:52:00,23.0,7.0,30.16,WNW,297,0.0,10.0,49,0.00,,,0.64,,2013-02-02 03:52:00,
2013-02-01 23:02:00,22.0,6.0,30.18,West,266,0.0,10.0,50,0.00,,,0.64,,2013-02-02 04:02:00,
2013-02-01 23:11:00,22.0,6.0,30.18,West,266,0.0,10.0,50,0.00,,,0.64,,2013-02-02 04:11:00,
2013-02-01 23:22:00,22.0,7.0,30.18,West,267,0.0,10.0,51,0.00,,,0.64,,2013-02-02 04:22:00,
2013-02-01 23:32:00,22.0,7.0,30.17,WSW,249,1.0,5.0,52,0.00,,,0.00,,2013-02-02 04:32:00,
2013-02-01 23:42:00,22.0,7.0,30.17,WSW,249,1.0,5.0,52,0.00,,,0.00,,2013-02-02 04:42:00,
2013-02-01 23:52:00,22.0,7.0,30.18,WSW,251,0.0,5.0,52,0.00,,,0.00,,2013-02-02 04:52:00,